Location: Township of Marena
(38.1747°N, 99.6798°W)
Time: 11:56:36
(UTC+00:00)

YAOGAN 1 - Pass Details

Date: 26 October 2020
Orbit: 618 x 620 km, 97.9° (Epoch: 25 November)

Event Time Altitude Azimuth Distance (km) Brightness Sun altitude
Rises 01:45:11 0° 180° (S) 2,881 6.0 -23.9°
Reaches altitude 10° 01:47:25 10° 186° (S) 1,980 5.2 -24.3°
Maximum altitude 01:51:35 47° 261° (W) 820 3.5 -25.1°
Drops below altitude 10° 01:55:46 10° 335° (NNW) 1,994 5.5 -25.9°
Sets 01:58:02 0° 342° (NNW) 2,904 6.3 -26.4°
